This is the latest recevied weather packets stored in our database for station/object N9PBY-2. If no packets are shown the sender has not sent any weather packets the latest 10 day(s).
| Time | Temp. | Humidity | Pressure | Rain* | Wind** | Luminosity | Snow |
|---|---|---|---|---|---|---|---|
| 1777578607 | 6.67° C | 57% | 1015.8 hPa | 0 mm | - | - | - |
| 1777578007 | 6.67° C | 57% | 1015.8 hPa | 0 mm | - | - | - |
| 1777577407 | 7.22° C | 59% | 1015.8 hPa | 0 mm | - | - | - |
| 1777576807 | 6.67° C | 58% | 1015.8 hPa | 0 mm | - | - | - |
| 1777576207 | 7.22° C | 56% | 1015.9 hPa | 0 mm | - | - | - |
| 1777575606 | 8.33° C | 54% | 1015.9 hPa | 0 mm | - | - | - |
| 1777575007 | 8.33° C | 58% | 1016.1 hPa | 0 mm | - | - | - |
| 1777574407 | 8.33° C | 57% | 1016 hPa | 0 mm | - | - | - |
| 1777573807 | 7.22° C | 59% | 1015.9 hPa | 0 mm | - | - | - |
| 1777573207 | 7.78° C | 57% | 1016.1 hPa | 0 mm | - | - | - |
| 1777572607 | 8.33° C | 55% | 1016.2 hPa | 0 mm | - | - | - |
| 1777572007 | 8.89° C | 57% | 1016.2 hPa | 0 mm | - | - | - |
| 1777571407 | 8.89° C | 57% | 1016.3 hPa | 0 mm | - | - | - |
| 1777570807 | 9.44° C | 58% | 1016.3 hPa | 0 mm | - | - | - |
| 1777570207 | 9.44° C | 57% | 1016.4 hPa | 0 mm | - | - | - |
| 1777569607 | 8.33° C | 58% | 1016.3 hPa | 0 mm | - | - | - |
| 1777569006 | 7.78° C | 59% | 1016.4 hPa | 0 mm | - | - | - |
| 1777568407 | 7.78° C | 56% | 1016.3 hPa | 0 mm | - | - | - |
| 1777567806 | 8.89° C | 52% | 1016.3 hPa | 0 mm | - | - | - |
| 1777567206 | 9.44° C | 42% | 1016.3 hPa | 0 mm | - | - | - |
| 1777566607 | 9.44° C | 42% | 1016.3 hPa | 0 mm | - | - | - |
| 1777566007 | 9.44° C | 44% | 1016.4 hPa | 0 mm | - | - | - |
| 1777565406 | 8.89° C | 43% | 1016.4 hPa | 0 mm | - | - | - |
| 1777564807 | 8.89° C | 41% | 1016.4 hPa | 0 mm | - | - | - |
| 1777564207 | 9.44° C | 42% | 1016.3 hPa | 0 mm | - | - | - |
* Rain latest hour (hover to see other rain measurements)
** Current wind speed in m/s (hover to see current wind gust speed)